Year,Month,Day,Hour,Minute,Value (Times are PST for temperature in C)
2010,11,23,00,00,-5.00
2010,11,23,00,01,-5.00
2010,11,23,00,02,-5.00
2010,11,23,00,03,-5.00
2010,11,23,00,04,-5.00
2010,11,23,00,05,-5.00
2010,11,23,00,06,-5.00
2010,11,23,00,07,-5.00
2010,11,23,00,08,-5.00
2010,11,23,00,09,-5.00
2010,11,23,00,10,-5.00
2010,11,23,00,11,-5.00
2010,11,23,00,12,-5.00
2010,11,23,00,13,-5.00
2010,11,23,00,14,-5.00
2010,11,23,00,15,-5.00
2010,11,23,00,16,-5.00
2010,11,23,00,17,-5.00
2010,11,23,00,18,-5.00
2010,11,23,00,19,-5.00
2010,11,23,00,20,-5.00
2010,11,23,00,21,-5.00
2010,11,23,00,22,-5.00
2010,11,23,00,23,-5.10
2010,11,23,00,24,-5.10
2010,11,23,00,25,-5.10
2010,11,23,00,26,-5.10
2010,11,23,00,27,-5.10
2010,11,23,00,28,-5.10
2010,11,23,00,29,-5.20
2010,11,23,00,30,-5.20
2010,11,23,00,31,-5.10
2010,11,23,00,32,-5.10
2010,11,23,00,33,-5.10
2010,11,23,00,34,-5.10
2010,11,23,00,35,-5.00
2010,11,23,00,36,-5.00
2010,11,23,00,37,-5.00
2010,11,23,00,38,-5.00
2010,11,23,00,39,-5.00
2010,11,23,00,40,-5.00
2010,11,23,00,41,-5.00
2010,11,23,00,42,-5.00
2010,11,23,00,43,-5.00
2010,11,23,00,44,-5.00
2010,11,23,00,45,-5.10
2010,11,23,00,46,-5.10
2010,11,23,00,47,-5.10
2010,11,23,00,48,-5.10
2010,11,23,00,49,-5.10
2010,11,23,00,50,-5.10
2010,11,23,00,51,-5.10
2010,11,23,00,52,-5.10
2010,11,23,00,53,-5.10
2010,11,23,00,54,-5.10
2010,11,23,00,55,-5.10
2010,11,23,00,56,-5.10
2010,11,23,00,57,-5.10
2010,11,23,00,58,-5.10
2010,11,23,00,59,-5.10
2010,11,23,01,00,-5.10
2010,11,23,01,01,-5.10
2010,11,23,01,02,-5.10
2010,11,23,01,03,-5.20
2010,11,23,01,04,-5.20
2010,11,23,01,05,-5.20
2010,11,23,01,06,-5.20
2010,11,23,01,07,-5.20
2010,11,23,01,08,-5.20
2010,11,23,01,09,-5.20
2010,11,23,01,10,-5.20
2010,11,23,01,11,-5.20
2010,11,23,01,12,-5.20
2010,11,23,01,13,-5.20
2010,11,23,01,14,-5.20
2010,11,23,01,15,-5.20
2010,11,23,01,16,-5.20
2010,11,23,01,17,-5.20
2010,11,23,01,18,-5.20
2010,11,23,01,19,-5.20
2010,11,23,01,20,-5.20
2010,11,23,01,21,-5.20
2010,11,23,01,22,-5.30
2010,11,23,01,23,-5.30
2010,11,23,01,24,-5.30
2010,11,23,01,25,-5.30
2010,11,23,01,26,-5.30
2010,11,23,01,27,-5.30
2010,11,23,01,28,-5.30
2010,11,23,01,29,-5.30
2010,11,23,01,30,-5.30
2010,11,23,01,31,-5.30
2010,11,23,01,32,-5.30
2010,11,23,01,33,-5.30
2010,11,23,01,34,-5.30
2010,11,23,01,35,-5.30
2010,11,23,01,36,-5.30
2010,11,23,01,37,-5.40
2010,11,23,01,38,-5.40
2010,11,23,01,39,-5.40
2010,11,23,01,40,-5.40
2010,11,23,01,41,-5.40
2010,11,23,01,42,-5.40
2010,11,23,01,43,-5.40
2010,11,23,01,44,-5.40
2010,11,23,01,45,-5.40
2010,11,23,01,46,-5.40
2010,11,23,01,47,-5.40
2010,11,23,01,48,-5.40
2010,11,23,01,49,-5.40
2010,11,23,01,50,-5.40
2010,11,23,01,51,-5.50
2010,11,23,01,52,-5.50
2010,11,23,01,53,-5.50
2010,11,23,01,54,-5.50
2010,11,23,01,55,-5.60
2010,11,23,01,56,-5.60
2010,11,23,01,57,-5.60
2010,11,23,01,58,-5.50
2010,11,23,01,59,-5.50
2010,11,23,02,00,-5.50
2010,11,23,02,01,-5.50
2010,11,23,02,02,-5.50
2010,11,23,02,03,-5.50
2010,11,23,02,04,-5.40
2010,11,23,02,05,-5.40
2010,11,23,02,06,-5.40
2010,11,23,02,07,-5.50
2010,11,23,02,08,-5.50
2010,11,23,02,09,-5.50
2010,11,23,02,10,-5.50
2010,11,23,02,11,-5.50
2010,11,23,02,12,-5.50
2010,11,23,02,13,-5.50
2010,11,23,02,14,-5.50
2010,11,23,02,15,-5.60
2010,11,23,02,16,-5.60
2010,11,23,02,17,-5.60
2010,11,23,02,18,-5.60
2010,11,23,02,19,-5.60
2010,11,23,02,20,-5.60
2010,11,23,02,21,-5.60
2010,11,23,02,22,-5.60
2010,11,23,02,23,-5.60
2010,11,23,02,24,-5.50
2010,11,23,02,25,-5.50
2010,11,23,02,26,-5.40
2010,11,23,02,27,-5.40
2010,11,23,02,28,-5.40
2010,11,23,02,29,-5.40
2010,11,23,02,30,-5.50
2010,11,23,02,31,-5.50
2010,11,23,02,32,-5.50
2010,11,23,02,33,-5.50
2010,11,23,02,34,-5.60
2010,11,23,02,35,-5.60
2010,11,23,02,36,-5.60
2010,11,23,02,37,-5.60
2010,11,23,02,38,-5.60
2010,11,23,02,39,-5.70
2010,11,23,02,40,-5.70
2010,11,23,02,41,-5.70
2010,11,23,02,42,-5.70
2010,11,23,02,43,-5.70
2010,11,23,02,44,-5.80
2010,11,23,02,45,-5.80
2010,11,23,02,46,-5.80
2010,11,23,02,47,-5.80
2010,11,23,02,48,-5.80
2010,11,23,02,49,-5.90
2010,11,23,02,50,-5.90
2010,11,23,02,51,-5.90
2010,11,23,02,52,-5.90
2010,11,23,02,53,-5.90
2010,11,23,02,54,-5.90
2010,11,23,02,55,-6.00
2010,11,23,02,56,-6.10
2010,11,23,02,57,-6.10
2010,11,23,02,58,-6.10
2010,11,23,02,59,-6.10
2010,11,23,03,00,-6.10
2010,11,23,03,01,-6.10
2010,11,23,03,02,-6.10
2010,11,23,03,03,-6.10
2010,11,23,03,04,-6.10
2010,11,23,03,05,-6.10
2010,11,23,03,06,-6.10
2010,11,23,03,07,-6.10
2010,11,23,03,08,-6.10
2010,11,23,03,09,-6.10
2010,11,23,03,10,-5.90
2010,11,23,03,11,-5.90
2010,11,23,03,12,-5.90
2010,11,23,03,13,-5.90
2010,11,23,03,14,-5.90
2010,11,23,03,15,-5.90
2010,11,23,03,16,-5.90
2010,11,23,03,17,-5.90
2010,11,23,03,18,-5.90
2010,11,23,03,19,-5.90
2010,11,23,03,20,-5.90
2010,11,23,03,21,-5.90
2010,11,23,03,22,-5.90
2010,11,23,03,23,-5.90
2010,11,23,03,24,-5.90
2010,11,23,03,25,-5.90
2010,11,23,03,26,-5.90
2010,11,23,03,27,-5.90
2010,11,23,03,28,-5.90
2010,11,23,03,29,-5.90
2010,11,23,03,30,-5.80
2010,11,23,03,31,-5.80
2010,11,23,03,32,-5.80
2010,11,23,03,33,-5.80
2010,11,23,03,34,-5.70
2010,11,23,03,35,-5.70
2010,11,23,03,36,-5.70
2010,11,23,03,37,-5.70
2010,11,23,03,38,-5.70
2010,11,23,03,39,-5.70
2010,11,23,03,40,-5.70
2010,11,23,03,41,-5.70
2010,11,23,03,42,-5.70
2010,11,23,03,43,-5.60
2010,11,23,03,44,-5.60
2010,11,23,03,45,-5.60
2010,11,23,03,46,-5.60
2010,11,23,03,47,-5.60
2010,11,23,03,48,-5.60
2010,11,23,03,49,-5.60
2010,11,23,03,50,-5.60
2010,11,23,03,51,-5.60
2010,11,23,03,52,-5.60
2010,11,23,03,53,-5.70
2010,11,23,03,54,-5.70
2010,11,23,03,55,-5.70
2010,11,23,03,56,-5.70
2010,11,23,03,57,-5.70
2010,11,23,03,58,-5.70
2010,11,23,03,59,-5.80
2010,11,23,04,00,-5.80
2010,11,23,04,01,-5.80
2010,11,23,04,02,-5.80
2010,11,23,04,03,-5.90
2010,11,23,04,04,-5.90
2010,11,23,04,05,-5.90
2010,11,23,04,06,-5.90
2010,11,23,04,07,-5.90
2010,11,23,04,08,-5.90
2010,11,23,04,09,-5.90
2010,11,23,04,10,-5.90
2010,11,23,04,11,-6.10
2010,11,23,04,12,-6.10
2010,11,23,04,13,-6.10
2010,11,23,04,14,-6.10
2010,11,23,04,15,-6.10
2010,11,23,04,16,-6.10
2010,11,23,04,17,-6.10
2010,11,23,04,18,-6.10
2010,11,23,04,19,-6.10
2010,11,23,04,20,-6.10
2010,11,23,04,21,-6.10
2010,11,23,04,22,-6.10
2010,11,23,04,23,-6.10
2010,11,23,04,24,-6.10
2010,11,23,04,25,-6.10
2010,11,23,04,26,-6.10
2010,11,23,04,27,-6.10
2010,11,23,04,28,-6.10
2010,11,23,04,29,-6.10
2010,11,23,04,30,-6.20
2010,11,23,04,31,-6.30
2010,11,23,04,32,-6.30
2010,11,23,04,33,-6.30
2010,11,23,04,34,-6.40
2010,11,23,04,35,-6.40
2010,11,23,04,36,-6.50
2010,11,23,04,37,-6.50
2010,11,23,04,38,-6.50
2010,11,23,04,39,-6.60
2010,11,23,04,40,-6.50
2010,11,23,04,41,-6.50
2010,11,23,04,42,-6.50
2010,11,23,04,43,-6.40
2010,11,23,04,44,-6.40
2010,11,23,04,45,-6.40
2010,11,23,04,46,-6.30
2010,11,23,04,47,-6.30
2010,11,23,04,48,-6.30
2010,11,23,04,49,-6.30
2010,11,23,04,50,-6.30
2010,11,23,04,51,-6.40
2010,11,23,04,52,-6.40
2010,11,23,04,53,-6.40
2010,11,23,04,54,-6.40
2010,11,23,04,55,-6.40
2010,11,23,04,56,-6.40
2010,11,23,04,57,-6.40
2010,11,23,04,58,-6.40
2010,11,23,04,59,-6.40
2010,11,23,05,00,-6.40
2010,11,23,05,01,-6.40
2010,11,23,05,02,-6.40
2010,11,23,05,03,-6.30
2010,11,23,05,04,-6.30
2010,11,23,05,05,-6.30
2010,11,23,05,06,-6.20
2010,11,23,05,07,-6.20
2010,11,23,05,08,-6.20
2010,11,23,05,09,-6.20
2010,11,23,05,10,-6.20
2010,11,23,05,11,-6.10
2010,11,23,05,12,-6.10
2010,11,23,05,13,-6.10
2010,11,23,05,14,-6.10
2010,11,23,05,15,-6.10
2010,11,23,05,16,-6.10
2010,11,23,05,17,-6.10
2010,11,23,05,18,-6.10
2010,11,23,05,19,-6.10
2010,11,23,05,20,-6.10
2010,11,23,05,21,-6.10
2010,11,23,05,22,-6.10
2010,11,23,05,23,-6.10
2010,11,23,05,24,-6.00
2010,11,23,05,25,-5.90
2010,11,23,05,26,-5.90
2010,11,23,05,27,-5.90
2010,11,23,05,28,-5.90
2010,11,23,05,29,-5.90
2010,11,23,05,30,-5.90
2010,11,23,05,31,-5.90
2010,11,23,05,32,-5.90
2010,11,23,05,33,-5.80
2010,11,23,05,34,-5.80
2010,11,23,05,35,-5.80
2010,11,23,05,36,-5.80
2010,11,23,05,37,-5.80
2010,11,23,05,38,-5.80
2010,11,23,05,39,-5.80
2010,11,23,05,40,-5.80
2010,11,23,05,41,-5.80
2010,11,23,05,42,-5.80
2010,11,23,05,43,-5.80
2010,11,23,05,44,-5.80
2010,11,23,05,45,-5.90
2010,11,23,05,46,-5.90
2010,11,23,05,47,-5.90
2010,11,23,05,48,-5.90
2010,11,23,05,49,-5.90
2010,11,23,05,50,-5.90
2010,11,23,05,51,-5.90
2010,11,23,05,52,-5.90
2010,11,23,05,53,-5.90
2010,11,23,05,54,-5.90
2010,11,23,05,55,-5.90
2010,11,23,05,56,-5.90
2010,11,23,05,57,-5.90
2010,11,23,05,58,-5.90
2010,11,23,05,59,-5.90
2010,11,23,06,00,-5.90
2010,11,23,06,01,-5.90
2010,11,23,06,02,-5.90
2010,11,23,06,03,-5.90
2010,11,23,06,04,-5.90
2010,11,23,06,05,-5.90
2010,11,23,06,06,-5.90
2010,11,23,06,07,-5.90
2010,11,23,06,08,-5.90
2010,11,23,06,09,-5.90
2010,11,23,06,10,-5.90
2010,11,23,06,11,-6.00
2010,11,23,06,12,-6.10
2010,11,23,06,13,-6.10
2010,11,23,06,14,-6.10
2010,11,23,06,15,-6.10
2010,11,23,06,16,-6.10
2010,11,23,06,17,-6.10
2010,11,23,06,18,-6.10
2010,11,23,06,19,-6.10
2010,11,23,06,20,-6.10
2010,11,23,06,21,-6.10
2010,11,23,06,22,-6.10
2010,11,23,06,23,-6.10
2010,11,23,06,24,-6.10
2010,11,23,06,25,-6.10
2010,11,23,06,26,-6.10
2010,11,23,06,27,-6.10
2010,11,23,06,28,-6.10
2010,11,23,06,29,-6.10
2010,11,23,06,30,-6.10
2010,11,23,06,31,-6.10
2010,11,23,06,32,-6.10
2010,11,23,06,33,-6.10
2010,11,23,06,34,-6.10
2010,11,23,06,35,-6.10
2010,11,23,06,36,-6.10
2010,11,23,06,37,-6.10
2010,11,23,06,38,-6.10
2010,11,23,06,39,-6.10
2010,11,23,06,40,-6.10
2010,11,23,06,41,-6.10
2010,11,23,06,42,-6.10
2010,11,23,06,43,-6.10
2010,11,23,06,44,-6.10
2010,11,23,06,45,-6.10
2010,11,23,06,46,-6.10
2010,11,23,06,47,-6.10
2010,11,23,06,48,-6.10
2010,11,23,06,49,-6.10
2010,11,23,06,50,-6.10
2010,11,23,06,51,-6.10
2010,11,23,06,52,-6.10
2010,11,23,06,53,-6.10
2010,11,23,06,54,-6.10
2010,11,23,06,55,-6.10
2010,11,23,06,56,-6.10
2010,11,23,06,57,-6.10
2010,11,23,06,58,-6.20
2010,11,23,06,59,-6.20
2010,11,23,07,00,-6.20
2010,11,23,07,01,-6.20
2010,11,23,07,02,-6.20
2010,11,23,07,03,-6.20
2010,11,23,07,04,-6.20
2010,11,23,07,05,-6.20
2010,11,23,07,06,-6.20
2010,11,23,07,07,-6.20
2010,11,23,07,08,-6.20
2010,11,23,07,09,-6.20
2010,11,23,07,10,-6.20
2010,11,23,07,11,-6.30
2010,11,23,07,12,-6.30
2010,11,23,07,13,-6.30
2010,11,23,07,14,-6.30
2010,11,23,07,15,-6.30
2010,11,23,07,16,-6.30
2010,11,23,07,17,-6.30
2010,11,23,07,18,-6.30
2010,11,23,07,19,-6.30
2010,11,23,07,20,-6.30
2010,11,23,07,21,-6.30
2010,11,23,07,22,-6.30
2010,11,23,07,23,-6.30
2010,11,23,07,24,-6.30
2010,11,23,07,25,-6.40
2010,11,23,07,26,-6.40
2010,11,23,07,27,-6.40
2010,11,23,07,28,-6.40
2010,11,23,07,29,-6.40
2010,11,23,07,30,-6.40
2010,11,23,07,31,-6.40
2010,11,23,07,32,-6.40
2010,11,23,07,33,-6.40
2010,11,23,07,34,-6.40
2010,11,23,07,35,-6.40
2010,11,23,07,36,-6.40
2010,11,23,07,37,-6.40
2010,11,23,07,38,-6.50
2010,11,23,07,39,-6.50
2010,11,23,07,40,-6.50
2010,11,23,07,41,-6.50
2010,11,23,07,42,-6.50
2010,11,23,07,43,-6.50
2010,11,23,07,44,-6.50
2010,11,23,07,45,-6.50
2010,11,23,07,46,-6.50
2010,11,23,07,47,-6.60
2010,11,23,07,48,-6.60
2010,11,23,07,49,-6.60
2010,11,23,07,50,-6.60
2010,11,23,07,51,-6.60
2010,11,23,07,52,-6.60
2010,11,23,07,53,-6.60
2010,11,23,07,54,-6.60
2010,11,23,07,55,-6.60
2010,11,23,07,56,-6.60
2010,11,23,07,57,-6.60
2010,11,23,07,58,-6.60
2010,11,23,07,59,-6.60
2010,11,23,08,00,-6.60
2010,11,23,08,01,-6.70
2010,11,23,08,02,-6.70
2010,11,23,08,03,-6.70
2010,11,23,08,04,-6.70
2010,11,23,08,05,-6.70
2010,11,23,08,06,-6.70
2010,11,23,08,07,-6.70
2010,11,23,08,08,-6.70
2010,11,23,08,09,-6.70
2010,11,23,08,10,-6.70
2010,11,23,08,11,-6.70
2010,11,23,08,12,-6.70
2010,11,23,08,13,-6.70
2010,11,23,08,14,-6.70
2010,11,23,08,15,-6.70
2010,11,23,08,16,-6.70
2010,11,23,08,17,-6.70
2010,11,23,08,18,-6.70
2010,11,23,08,19,-6.70
2010,11,23,08,20,-6.70
2010,11,23,08,21,-6.70
2010,11,23,08,22,-6.70
2010,11,23,08,23,-6.70
2010,11,23,08,24,-6.70
2010,11,23,08,25,-6.70
2010,11,23,08,26,-6.70
2010,11,23,08,27,-6.70
2010,11,23,08,28,-6.60
2010,11,23,08,29,-6.60
2010,11,23,08,30,-6.60
2010,11,23,08,31,-6.60
2010,11,23,08,32,-6.50
2010,11,23,08,33,-6.50
2010,11,23,08,34,-6.50
2010,11,23,08,35,-6.50
2010,11,23,08,36,-6.50
2010,11,23,08,37,-6.50
2010,11,23,08,38,-6.40
2010,11,23,08,39,-6.40
2010,11,23,08,40,-6.40
2010,11,23,08,41,-6.40
2010,11,23,08,42,-6.40
2010,11,23,08,43,-6.40
2010,11,23,08,44,-6.40
2010,11,23,08,45,-6.30
2010,11,23,08,46,-6.30
2010,11,23,08,47,-6.30
2010,11,23,08,48,-6.20
2010,11,23,08,49,-6.10
2010,11,23,08,50,-6.00
2010,11,23,08,51,-5.90
2010,11,23,08,52,-5.90
2010,11,23,08,53,-5.80
2010,11,23,08,54,-5.60
2010,11,23,08,55,-5.60
2010,11,23,08,56,-5.50
2010,11,23,08,57,-5.40
2010,11,23,08,58,-5.30
2010,11,23,08,59,-5.20
2010,11,23,09,00,-5.10
2010,11,23,09,01,-5.00
2010,11,23,09,02,-4.90
2010,11,23,09,03,-4.80
2010,11,23,09,04,-4.70
2010,11,23,09,05,-4.50
2010,11,23,09,06,-4.40
2010,11,23,09,07,-4.40
2010,11,23,09,08,-4.20
2010,11,23,09,09,-4.20
2010,11,23,09,10,-4.10
2010,11,23,09,11,-4.10
2010,11,23,09,12,-4.10
2010,11,23,09,13,-4.00
2010,11,23,09,14,-4.00
2010,11,23,09,15,-4.00
2010,11,23,09,16,-4.00
2010,11,23,09,17,-4.10
2010,11,23,09,18,-4.00
2010,11,23,09,19,-4.00
2010,11,23,09,20,-4.00
2010,11,23,09,21,-3.90
2010,11,23,09,22,-3.90
2010,11,23,09,23,-3.80
2010,11,23,09,24,-3.70
2010,11,23,09,25,-3.70
2010,11,23,09,26,-3.60
2010,11,23,09,27,-3.50
2010,11,23,09,28,-3.50
2010,11,23,09,29,-3.40
2010,11,23,09,30,-3.30
2010,11,23,09,31,-3.30
2010,11,23,09,32,-3.30
2010,11,23,09,33,-3.30
2010,11,23,09,34,-3.20
2010,11,23,09,35,-3.20
2010,11,23,09,36,-3.20
2010,11,23,09,37,-3.30
2010,11,23,09,38,-3.30
2010,11,23,09,39,-3.30
2010,11,23,09,40,-3.30
2010,11,23,09,41,-3.30
2010,11,23,09,42,-3.30
2010,11,23,09,43,-3.30
2010,11,23,09,44,-3.30
2010,11,23,09,45,-3.30
2010,11,23,09,46,-3.20
2010,11,23,09,47,-3.10
2010,11,23,09,48,-3.10
2010,11,23,09,49,-3.00
2010,11,23,09,50,-3.00
2010,11,23,09,51,-3.10
2010,11,23,09,52,-3.10
2010,11,23,09,53,-3.10
2010,11,23,09,54,-3.10
2010,11,23,09,55,-3.10
2010,11,23,09,56,-3.00
2010,11,23,09,57,-3.00
2010,11,23,09,58,-3.00
2010,11,23,09,59,-3.00
2010,11,23,10,00,-2.90
2010,11,23,10,01,-2.90
2010,11,23,10,02,-2.80
2010,11,23,10,03,-2.80
2010,11,23,10,04,-2.80
2010,11,23,10,05,-2.80
2010,11,23,10,06,-2.80
2010,11,23,10,07,-2.80
2010,11,23,10,08,-2.80
2010,11,23,10,09,-2.80
2010,11,23,10,10,-2.80
2010,11,23,10,11,-2.80
2010,11,23,10,12,-2.80
2010,11,23,10,13,-2.90
2010,11,23,10,14,-2.90
2010,11,23,10,15,-3.00
2010,11,23,10,16,-3.00
2010,11,23,10,17,-3.00
2010,11,23,10,18,-3.00
2010,11,23,10,19,-3.00
2010,11,23,10,20,-3.00
2010,11,23,10,21,-3.10
2010,11,23,10,22,-3.10
2010,11,23,10,23,-3.10
2010,11,23,10,24,-3.10
2010,11,23,10,25,-3.10
2010,11,23,10,26,-3.10
2010,11,23,10,27,-3.10
2010,11,23,10,28,-3.10
2010,11,23,10,29,-3.10
2010,11,23,10,30,-3.00
2010,11,23,10,31,-3.00
2010,11,23,10,32,-3.00
2010,11,23,10,33,-3.00
2010,11,23,10,34,-3.00
2010,11,23,10,35,-2.90
2010,11,23,10,36,-2.90
2010,11,23,10,37,-2.90
2010,11,23,10,38,-2.80
2010,11,23,10,39,-2.80
2010,11,23,10,40,-2.90
2010,11,23,10,41,-2.90
2010,11,23,10,42,-3.00
2010,11,23,10,43,-3.10
2010,11,23,10,44,-3.20
2010,11,23,10,45,-3.20
2010,11,23,10,46,-3.20
2010,11,23,10,47,-3.10
2010,11,23,10,48,-3.10
2010,11,23,10,49,-3.10
2010,11,23,10,50,-3.10
2010,11,23,10,51,-3.20
2010,11,23,10,52,-3.30
2010,11,23,10,53,-3.30
2010,11,23,10,54,-3.30
2010,11,23,10,55,-3.20
2010,11,23,10,56,-3.20
2010,11,23,10,57,-3.20
2010,11,23,10,58,-3.20
2010,11,23,10,59,-3.20
2010,11,23,11,00,-3.20
2010,11,23,11,01,-3.20
2010,11,23,11,02,-3.20
2010,11,23,11,03,-3.20
2010,11,23,11,04,-3.20
2010,11,23,11,05,-3.20
2010,11,23,11,06,-3.20
2010,11,23,11,07,-3.10
2010,11,23,11,08,-3.10
2010,11,23,11,09,-3.10
2010,11,23,11,10,-3.10
2010,11,23,11,11,-3.10
2010,11,23,11,12,-3.10
2010,11,23,11,13,-3.10
2010,11,23,11,14,-3.10
2010,11,23,11,15,-3.00
2010,11,23,11,16,-3.00
2010,11,23,11,17,-3.10
2010,11,23,11,18,-3.00
2010,11,23,11,19,-3.00
2010,11,23,11,20,-3.00
2010,11,23,11,21,-3.00
2010,11,23,11,22,-2.90
2010,11,23,11,23,-2.90
2010,11,23,11,24,-2.80
2010,11,23,11,25,-2.80
2010,11,23,11,26,-2.70
2010,11,23,11,27,-2.70
2010,11,23,11,28,-2.60
2010,11,23,11,29,-2.60
2010,11,23,11,30,-2.50
2010,11,23,11,31,-2.40
2010,11,23,11,32,-2.50
2010,11,23,11,33,-2.60
2010,11,23,11,34,-2.70
2010,11,23,11,35,-2.80
2010,11,23,11,36,-2.80
2010,11,23,11,37,-2.90
2010,11,23,11,38,-2.90
2010,11,23,11,39,-2.90
2010,11,23,11,40,-2.90
2010,11,23,11,41,-2.90
2010,11,23,11,42,-2.80
2010,11,23,11,43,-2.80
2010,11,23,11,44,-2.70
2010,11,23,11,45,-2.70
2010,11,23,11,46,-2.70
2010,11,23,11,47,-2.70
2010,11,23,11,48,-2.60
2010,11,23,11,49,-2.50
2010,11,23,11,50,-2.50
2010,11,23,11,51,-2.40
2010,11,23,11,52,-2.40
2010,11,23,11,53,-2.30
2010,11,23,11,54,-2.30
2010,11,23,11,55,-2.30
2010,11,23,11,56,-2.30
2010,11,23,11,57,-2.30
2010,11,23,11,58,-2.30
2010,11,23,11,59,-2.30
2010,11,23,12,00,-2.30
2010,11,23,12,01,-2.30
2010,11,23,12,02,-2.30
2010,11,23,12,03,-2.30
2010,11,23,12,04,-2.30
2010,11,23,12,05,-2.40
2010,11,23,12,06,-2.40
2010,11,23,12,07,-2.50
2010,11,23,12,08,-2.60
2010,11,23,12,09,-2.60
2010,11,23,12,10,-2.60
2010,11,23,12,11,-2.70
2010,11,23,12,12,-2.70
2010,11,23,12,13,-2.80
2010,11,23,12,14,-2.80
2010,11,23,12,15,-3.00
2010,11,23,12,16,-3.00
2010,11,23,12,17,-3.10
2010,11,23,12,18,-3.10
2010,11,23,12,19,-3.10
2010,11,23,12,20,-3.10
2010,11,23,12,21,-3.10
2010,11,23,12,22,-3.10
2010,11,23,12,23,-3.10
2010,11,23,12,24,-3.00
2010,11,23,12,25,-3.00
2010,11,23,12,26,-3.00
2010,11,23,12,27,-2.90
2010,11,23,12,28,-2.90
2010,11,23,12,29,-3.00
2010,11,23,12,30,-3.00
2010,11,23,12,31,-3.10
2010,11,23,12,32,-3.20
2010,11,23,12,33,-3.30
2010,11,23,12,34,-3.40
2010,11,23,12,35,-3.50
2010,11,23,12,36,-3.60
2010,11,23,12,37,-3.60
2010,11,23,12,38,-3.70
2010,11,23,12,39,-3.70
2010,11,23,12,40,-3.70
2010,11,23,12,41,-3.60
2010,11,23,12,42,-3.60
2010,11,23,12,43,-3.50
2010,11,23,12,44,-3.50
2010,11,23,12,45,-3.40
2010,11,23,12,46,-3.40
2010,11,23,12,47,-3.30
2010,11,23,12,48,-3.30
2010,11,23,12,49,-3.20
2010,11,23,12,50,-3.10
2010,11,23,12,51,-3.10
2010,11,23,12,52,-3.10
2010,11,23,12,53,-3.00
2010,11,23,12,54,-3.00
2010,11,23,12,55,-3.00
2010,11,23,12,56,-2.80
2010,11,23,12,57,-2.80
2010,11,23,12,58,-2.70
2010,11,23,12,59,-2.60
2010,11,23,13,00,-2.50
2010,11,23,13,01,-2.40
2010,11,23,13,02,-2.30
2010,11,23,13,03,-2.40
2010,11,23,13,04,-2.40
2010,11,23,13,05,-2.40
2010,11,23,13,06,-2.40
2010,11,23,13,07,-2.40
2010,11,23,13,08,-2.30
2010,11,23,13,09,-2.10
2010,11,23,13,10,-2.00
2010,11,23,13,11,-1.90
2010,11,23,13,12,-1.90
2010,11,23,13,13,-1.90
2010,11,23,13,14,-1.90
2010,11,23,13,15,-1.90
2010,11,23,13,16,-1.90
2010,11,23,13,17,-1.80
2010,11,23,13,18,-1.80
2010,11,23,13,19,-1.90
2010,11,23,13,20,-2.00
2010,11,23,13,21,-2.10
2010,11,23,13,22,-2.20
2010,11,23,13,23,-2.30
2010,11,23,13,24,-2.30
2010,11,23,13,25,-2.40
2010,11,23,13,26,-2.40
2010,11,23,13,27,-2.40
2010,11,23,13,28,-2.50
2010,11,23,13,29,-2.50
2010,11,23,13,30,-2.40
2010,11,23,13,31,-2.40
2010,11,23,13,32,-2.40
2010,11,23,13,33,-2.40
2010,11,23,13,34,-2.50
2010,11,23,13,35,-2.50
2010,11,23,13,36,-2.60
2010,11,23,13,37,-2.60
2010,11,23,13,38,-2.50
2010,11,23,13,39,-2.50
2010,11,23,13,40,-2.50
2010,11,23,13,41,-2.40
2010,11,23,13,42,-2.30
2010,11,23,13,43,-2.30
2010,11,23,13,44,-2.30
2010,11,23,13,45,-2.30
2010,11,23,13,46,-2.30
2010,11,23,13,47,-2.40
2010,11,23,13,48,-2.50
2010,11,23,13,49,-2.60
2010,11,23,13,50,-2.60
2010,11,23,13,51,-2.60
2010,11,23,13,52,-2.50
2010,11,23,13,53,-2.50
2010,11,23,13,54,-2.50
2010,11,23,13,55,-2.50
2010,11,23,13,56,-2.50
2010,11,23,13,57,-2.50
2010,11,23,13,58,-2.60
2010,11,23,13,59,-2.60
2010,11,23,14,00,-2.70
2010,11,23,14,01,-2.80
2010,11,23,14,02,-2.80
2010,11,23,14,03,-2.90
2010,11,23,14,04,-2.90
2010,11,23,14,05,-3.00
2010,11,23,14,06,-3.10
2010,11,23,14,07,-3.10
2010,11,23,14,08,-3.20
2010,11,23,14,09,-3.20
2010,11,23,14,10,-3.30
2010,11,23,14,11,-3.30
2010,11,23,14,12,-3.20
2010,11,23,14,13,-3.20
2010,11,23,14,14,-3.10
2010,11,23,14,15,-3.10
2010,11,23,14,16,-3.10
2010,11,23,14,17,-3.20
2010,11,23,14,18,-3.20
2010,11,23,14,19,-3.10
2010,11,23,14,20,-3.10
2010,11,23,14,21,-3.00
2010,11,23,14,22,-3.00
2010,11,23,14,23,-2.90
2010,11,23,14,24,-2.90
2010,11,23,14,25,-2.90
2010,11,23,14,26,-2.80
2010,11,23,14,27,-2.80
2010,11,23,14,28,-2.80
2010,11,23,14,29,-2.70
2010,11,23,14,30,-2.60
2010,11,23,14,31,-2.60
2010,11,23,14,32,-2.50
2010,11,23,14,33,-2.60
2010,11,23,14,34,-2.60
2010,11,23,14,35,-2.70
2010,11,23,14,36,-2.70
2010,11,23,14,37,-2.80
2010,11,23,14,38,-2.80
2010,11,23,14,39,-2.80
2010,11,23,14,40,-2.80
2010,11,23,14,41,-2.80
2010,11,23,14,42,-2.80
2010,11,23,14,43,-2.80
2010,11,23,14,44,-2.80
2010,11,23,14,45,-2.80
2010,11,23,14,46,-2.80
2010,11,23,14,47,-2.70
2010,11,23,14,48,-2.70
2010,11,23,14,49,-2.70
2010,11,23,14,50,-2.70
2010,11,23,14,51,-2.70
2010,11,23,14,52,-2.70
2010,11,23,14,53,-2.60
2010,11,23,14,54,-2.70
2010,11,23,14,55,-2.70
2010,11,23,14,56,-2.70
2010,11,23,14,57,-2.80
2010,11,23,14,58,-2.80
2010,11,23,14,59,-2.70
2010,11,23,15,00,-2.70
2010,11,23,15,01,-2.60
2010,11,23,15,02,-2.60
2010,11,23,15,03,-2.50
2010,11,23,15,04,-2.50
2010,11,23,15,05,-2.40
2010,11,23,15,06,-2.40
2010,11,23,15,07,-2.40
2010,11,23,15,08,-2.40
2010,11,23,15,09,-2.40
2010,11,23,15,10,-2.30
2010,11,23,15,11,-2.30
2010,11,23,15,12,-2.30
2010,11,23,15,13,-2.30
2010,11,23,15,14,-2.30
2010,11,23,15,15,-2.30
2010,11,23,15,16,-2.30
2010,11,23,15,17,-2.30
2010,11,23,15,18,-2.40
2010,11,23,15,19,-2.50
2010,11,23,15,20,-2.50
2010,11,23,15,21,-2.50
2010,11,23,15,22,-2.50
2010,11,23,15,23,-2.60
2010,11,23,15,24,-2.60
2010,11,23,15,25,-2.70
2010,11,23,15,26,-2.80
2010,11,23,15,27,-2.80
2010,11,23,15,28,-2.80
2010,11,23,15,29,-2.90
2010,11,23,15,30,-2.90
2010,11,23,15,31,-3.00
2010,11,23,15,32,-3.10
2010,11,23,15,33,-3.10
2010,11,23,15,34,-3.20
2010,11,23,15,35,-3.20
2010,11,23,15,36,-3.20
2010,11,23,15,37,-3.30
2010,11,23,15,38,-3.30
2010,11,23,15,39,-3.40
2010,11,23,15,40,-3.50
2010,11,23,15,41,-3.50
2010,11,23,15,42,-3.50
2010,11,23,15,43,-3.60
2010,11,23,15,44,-3.70
2010,11,23,15,45,-3.70
2010,11,23,15,46,-3.70
2010,11,23,15,47,-3.80
2010,11,23,15,48,-3.90
2010,11,23,15,49,-4.00
2010,11,23,15,50,-4.00
2010,11,23,15,51,-4.20
2010,11,23,15,52,-4.20
2010,11,23,15,53,-4.30
2010,11,23,15,54,-4.30
2010,11,23,15,55,-4.30
2010,11,23,15,56,-4.30
2010,11,23,15,57,-4.40
2010,11,23,15,58,-4.40
2010,11,23,15,59,-4.40
2010,11,23,16,00,-4.50
2010,11,23,16,01,-4.60
2010,11,23,16,02,-4.60
2010,11,23,16,03,-4.70
2010,11,23,16,04,-4.70
2010,11,23,16,05,-4.70
2010,11,23,16,06,-4.70
2010,11,23,16,07,-4.70
2010,11,23,16,08,-4.70
2010,11,23,16,09,-4.80
2010,11,23,16,10,-4.80
2010,11,23,16,11,-4.90
2010,11,23,16,12,-4.90
2010,11,23,16,13,-5.00
2010,11,23,16,14,-5.00
2010,11,23,16,15,-5.10
2010,11,23,16,16,-5.10
2010,11,23,16,17,-5.20
2010,11,23,16,18,-5.30
2010,11,23,16,19,-5.30
2010,11,23,16,20,-5.40
2010,11,23,16,21,-5.50
2010,11,23,16,22,-5.50
2010,11,23,16,23,-5.60
2010,11,23,16,24,-5.70
2010,11,23,16,25,-5.70
2010,11,23,16,26,-5.80
2010,11,23,16,27,-5.90
2010,11,23,16,28,-5.90
2010,11,23,16,29,-5.90
2010,11,23,16,30,-5.90
2010,11,23,16,31,-6.00
2010,11,23,16,32,-6.10
2010,11,23,16,33,-6.10
2010,11,23,16,34,-6.10
2010,11,23,16,35,-6.20
2010,11,23,16,36,-6.20
2010,11,23,16,37,-6.20
2010,11,23,16,38,-6.30
2010,11,23,16,39,-6.30
2010,11,23,16,40,-6.30
2010,11,23,16,41,-6.40
2010,11,23,16,42,-6.40
2010,11,23,16,43,-6.40
2010,11,23,16,44,-6.40
2010,11,23,16,45,-6.50
2010,11,23,16,46,-6.50
2010,11,23,16,47,-6.50
2010,11,23,16,48,-6.60
2010,11,23,16,49,-6.60
2010,11,23,16,50,-6.70
2010,11,23,16,51,-6.70
2010,11,23,16,52,-6.70
2010,11,23,16,53,-6.70
2010,11,23,16,54,-6.70
2010,11,23,16,55,-6.80
2010,11,23,16,56,-6.80
2010,11,23,16,57,-6.80
2010,11,23,16,58,-6.90
2010,11,23,16,59,-6.90
2010,11,23,17,00,-7.00
2010,11,23,17,01,-7.00
2010,11,23,17,02,-7.00
2010,11,23,17,03,-7.10
2010,11,23,17,04,-7.10
2010,11,23,17,05,-7.20
2010,11,23,17,06,-7.30
2010,11,23,17,07,-7.30
2010,11,23,17,08,-7.30
2010,11,23,17,09,-7.30
2010,11,23,17,10,-7.40
2010,11,23,17,11,-7.40
2010,11,23,17,12,-7.40
2010,11,23,17,13,-7.50
2010,11,23,17,14,-7.60
2010,11,23,17,15,-7.60
2010,11,23,17,16,-7.60
2010,11,23,17,17,-7.60
2010,11,23,17,18,-7.60
2010,11,23,17,19,-7.70